Карточка аэропорта URKA

Внимание!
Информация на этой странице в стадии наполнения.
Если вы не увидели какой-то информации, или заметили неточность - пожалуйста сообщите нам!
Спасибо!
Команда RU-STAFF
Название аэропортаВитязево
Название аэропорта (англ.)Vityazevo
Превышение176 ft. (53.6 m.)
Координаты45°0.13200000000012', 37°20.832'
Высота перехода4000 ft
Эшелон переходаFL50 (QNH >= 1013); FL60 (QNH 977-1012); FL70 (QNH < 977)
Коды ответчика1040-1047
Зона ОрВДРостов-на-Дону РПИ (URRV)
Данные METARURKA 251000Z 08004G09MPS CAVOK 29/14 Q1005 R03/010070 NOSIG RMK QFE750/1000
Проноз погоды (TAF)URKA 250746Z 2509/2609 05003G08MPS 9999 SCT040 TEMPO 2509/2518 02006G13MPS TEMPO 2603/2609 08008G15MPS
NOTAMshow/hide NOTAM
AWOS   TABLE

Информация о ВПП

ВПП Длина ВПП (м.) Покрытие Курс ВПП Частота ILS
042500Цементобетон36109.1
222500Цементобетон216 

Диспетчерские позиции

Позывной Наименование органа УВД Частота
URKAFM1119,0
URKA_GNDАнапа-Руление119.0
URKA_R_APPАнапа-Круг118.7
URKA_TWRАнапа-Старт119.8



Спутниковое изображение